Weather in Trekhsvyatskoye

Russia / Kaluga Oblast     55°01′05″N   36°36′30″E
temp.,
°C
wind,
m/s
gust,
m/s
humid.,
%
clouds,
%
prec.,
mm/h
press.,
hPa
HPBL,
m
15 april, thu
thu1500:00+11e226190 0.0 101615
03:00+10sse226473 0.0 101632
06:00+10nne2265100 0.0 101538
09:00+12ne2360100 0.0 1016131
12:00+17ene2348100 0.0 1015823
15:00+17e2747100 0.0 10152145
18:00+15ne3657100 0.0 1015168
21:00+13ene5156390 0.3 1015485
16 april, fri
fri1600:00+11ene51279100 0.9 1016558
03:00+9ene41090100 1.0 1017382
06:00+8ene51193100 0.0 1018388
09:00+9ene51185100 0.3 1019568
12:00+13e5869100 0.6 10191084
15:00+15e596397 0.6 10191450
18:00+14ene61164100 0.0 10191017
21:00+12e61372100 0.0 1020787
17 april, sat
sat1700:00+10ene51180100 0.1 1021656
03:00+8ene51085100 0.1 1021578
06:00+7ene51087100 0.1 1022514
09:00+9ene5108087 0.1 1023648
12:00+12ene6864100 0.1 1023956
15:00+14ene685687 0.1 10231223
18:00+13ene6105744 0.0 10231218
21:00+9ene512625 0.0 1025522
18 april, sun
sun1800:00+7ne412625 0.0 1026427
03:00+5ene412675 0.0 1027407
06:00+4ne412724 0.0 1028384
09:00+9ene59530 0.0 1028671
12:00+12ene57390 0.0 10281374
15:00+13ene56385 0.0 10281766
18:00+12ene47435 0.0 1028742
21:00+7ene38645 0.0 1030146
19 april, mon
mon1900:00+5ene24745 0.0 103068
03:00+4ene24795 0.0 103266
06:00+3ene26845 0.0 1032127
09:00+9e46625 0.0 1032585
12:00+12e564886 0.0 10321772
15:00+12e5542100 0.0 10321907
18:00+11ese4651100 0.0 10321102
21:00+6e3106569 0.0 1032243